Погода в Бресте

Погода в Бресте : погода сейчас, прогноз погоды и архив. Всё, что Вы хотите узнать о погоде в Бресте!

Поиск расширенной информации на нашем сайте:

Полезная информация:

Другие новости

Новости СМИ2

Главная страница сайта

Новости сайта

03.07.2017

Напоминаем, что на нашем специализированном сайте Метеоцентр.Азия вы можете получить высокодетализированные автоматические прогнозы погоды по пунктам России, СНГ и мира в авиационном формате (включающие направление и скорость ветра, видимость, явления погоды, количество и форму облачности, нижнюю и верхнюю границу облачности).

Рекомендуем:

Погода в Бресте - сегодня

Время (UTC), дата Ветер
(°,м/с) 
Видим.   Явления Облачность Т
(°С)
Тd
(°С)
f(%) Тe
(°С)
Pmin
(гПа)
dP
(гПа)
Po
(мм)
O2
(г/м3)
Тmin Tmax R s Состояние
почвы
21 18.05.19 050 (СВ) 20000 м  зарница{ливн. осадки}  8/4 1000 м средняя 
[Sc|Ac trans]
+17.6 +16.1 91 +29  1011.4  -0.2  746  279      0.0     
00 19.05.19 140 (ЮВ) 3300 м  ливневой дождь  10/10 1080 м 
[Sc]
+16.2 +15.6 96 +27  1012.4  0.9  746  281         
03 19.05.19 340 (С) 10 км  дымка{ливн. осадки}  3/0 средняя 
[Ac trans]
+14.7 +14.2 97 +23  1011.1  -1.3  745  282         
06 19.05.19 080 (В) 20000 м  {ливн. осадки}  9/8 600 м кучево-дожд., средняя 
[Cb calv|Ac trans]
+16.6 +13.5 82 +23  1010.5  -0.5  745  280  +14.7       
09 19.05.19 100 (В) 30000 м  {ливн. осадки}  8/0 средняя 
[Ac trans]
+20.1 +15.1 73 +29  1010.9  0.6  746  277      0.1     
12 19.05.19 100 (В) 20000 м  {ливн. осадки}  8/5 1380 м средняя 
[Cu Sc|Ac trans]
+21.9 +15.5 67 +32  1010.6  -0.2  745  275           
15 19.05.19 090 (В) 5{10}  30000 м    8/3 600 м кучево-дожд., средняя, верхняя 
[Cb calv|Ac trans|Ci fib]
+22.7 +15.5 64 +32  1010.1  -0.4  745  274      0.0     
18 19.05.19 110 (В) 3{11}  20000 м    4/0 средняя, верхняя 
[Ac trans|Ci fib]
+21.3 +15.8 71 +32  1010.3  0.1  745  275    +23.5  0.0     
21 19.05.19 090 (В) 20000 м    6/0 средняя 
[Ac trans]
+18.3 +15.7 85 +29  1010.8  0.3  745  278           
00 20.05.19 090 (В) 20000 м    3/0 средняя 
[Ac trans]
+17.5 +15.5 88 +28  1009.8  -1  745  279           
03 20.05.19 100 (В) 20000 м    4/3 1000 м средняя 
[Cu med, cong|Ac trans]
+17.5 +13 75 +24  1009  -0.8  744  279           
06 20.05.19 100 (В) 30000 м    ясно 
+20.1 +13.6 66 +27  1008.4  -0.4  744  276  +16.8         
09 20.05.19 120 (ЮВ) 5{11}  30000 м    8/8 1170 м 
[Cu med, cong]
+24.8 +16.8 61 +37  1007.9  -0.2  744  271           
12 20.05.19 140 (ЮВ) 5-10{13}  30000 м    9/4 2000 м верхняя 
[Cu med, cong|Ci fib]
+26.7 +15.4 50 +36  1007.5  -0.3  743  270           
15 20.05.19 130 (ЮВ) 5-11{13}  30000 м    9/9 1000 м кучево-дожд. 
[Cb cap]
+26.8 +14.2 46 +34  1006.2  -1.3  742  270           
18 20.05.19 230 (ЮЗ) 2{14}  30000 м  гроза, ливневой дождь  10/10 1000 м кучево-дожд. 
[Cb cap]
+16.1 +14.3 89 +25  1008.2  1.3  743  280    +27.7  0.8     
21 20.05.19 090 (В) 30000 м  в посл. час ливневой дождь{гроза}  10/10 1000 м кучево-дожд. 
[Cb cap]
+15.1 +14.6 97 +23  1008.3  743  281         
00 21.05.19 140 (ЮВ) 1600 м  гроза, ливневой дождь  10/10 800 м кучево-дожд. 
[Cb cap]
+15.2 +14.9 98 +24  1009.3  744  281         
03 21.05.19 090 (В) 30000 м  {ливн. осадки}  6/3 600 м кучево-дожд., верхняя 
[Cb calv|Cc]
+15 +14.1 94 +22  1006.4  -2.8  742  280      14     
06 21.05.19 100 (В) 20000 м  {ливн. осадки}  8/5 1000 м средняя 
[Cu Sc|Ac trans]
+18.9 +16.3 85 +30  1005.9  -0.3  742  276  +14.7    14     
09 21.05.19 090 (В) 20000 м    8/8 600 м кучево-дожд. 
[Cb calv]
+20.3 +16.5 79 +32  1005.2  -0.6  741  274           
12 21.05.19 110 (В) 5-11{15}  20000 м  в посл. час ливневой дождь{гроза}  8/4 600 м кучево-дожд., верхняя 
[Cb calv|Ci fib]
+21.2 +16.6 75 +33  1004.2  -0.9  741  273      17     
15 21.05.19 130 (ЮВ) 3{13}  20000 м  {гроза, ливн. осадки}  8/8 1000 м кучево-дожд. 
[Cb calv]
+20.8 +16 74 +32  1004.3  0.1  741  274      24     
18 21.05.19 150 (ЮВ) 20000 м  {гроза, ливн. осадки}  6/3 1000 м средняя 
[Cu med, cong|Ac trans]
+17.6 +11.8 69 +22  1005.1  0.6  741  278    +22  24     
21 21.05.19 110 (В) 20000 м    ясно 
+13.5 +10.8 84 +16  1006.5  1.1  742  283           
Время (UTC), дата Ветер
(°,м/с) 
Видим.   Явления Облачность Т
(°С)
Тd
(°С)
f(%) Тe
(°С)
Pmin
(гПа)
dP
(гПа)
Po
(мм)
O2
(г/м3)
Тmin Tmax R s Состояние
почвы

Для получения пояснительной информации подведите курсор к названию столбца.

ПОГОДА в Бресте - архив

Всё, что Вы хотите узнать о погоде в Бресте - удобно и подробно!

Выберите нужную дату (начиная с 1 января 2018* года) и нажмите кнопку "Найти".
Будут отображены архивные сводки погоды по пункту Брест, начиная с указанной даты.


Отображать данные в формате CSV (для использования в таблицах Excel)


Внимание! Наш архив погоды предназначен исключительно для личного некоммерческого использования в познавательных целях. Если Вам необходимы официальные справки о состоянии погоды (для производственных, юридических, коммерческих и т.п. целей), обращайтесь в органы Росгидромета.

*Примечание: данная дата относится к архиву по метеостанциям СССР (Россия, СНГ, Балтия).
Архив по метеостанциям Зарубежной Европы и Азии (кроме Китая) хранится 10 дней, по другим регионам земного шара (Китай, Африка, Америка, Австралия, Океания) - 1 день.

Брест - район местоположения метеостанции


Название, широта, долгота, высота метеостанции:
Брест 52.1°ш. 23.7°д. 146 м над ур. моря [Беларусь]

Дополнительная информация

В oтличие oт бoльшинства пoгoдных сайтoв мы публикуем пoдрoбную метеoинфoрмацию в детальнoм прoфессиoнальнoм фoрмате.

Характеристики температуры и влажнoсти вoздуха измеряются на высoте 2 м в тени вдали oт зданий и деревьев.
Скoрoсть ветра измеряется на высoте 10 м (на урoвне рoста челoвека скoрoсть ветра ниже в 1.5-2 раза). Если метеoстанция нахoдится в гoрoде или в лесу, тo скoрoсть ветра занижена на 2-4 м/с пo сравнению с oткрытым местoм. Скoрoсть ветра над акватoриями крупных рек и oзёр, а также на вершинах хoлмoв на 2-5 м/с выше, чем в oбычных услoвиях.
Атмoсфернoе давление в разных тoчках местнoсти мoжет значительнo oтличаться oт давления на метеoстанции, в зависимoсти oт услoвий рельефа (при пoдъёме на 10 м давление пoнижается примернo на 1 мм рт.ст.).